Date String (YYYY-MM-DD hh:mm:ss) UTC,Instrument flags,Ambient pressure (hPa),Sample flow (lpm),Bypass flow (lpm),Sample temperature (°C),Ambient temperature (°C),ASC tube jacket temperature (°C),LED temperature (°C),Box temperature (°C),Sample RH (%),Span deviation,Mass concentration (μg/m³),Mass concentration (μg/m³),Mass concentration (μg/m³)
DateTimeUTC,F1_M11,P_M11,Q1_M11,Q2_M11,T1_M11,T2_M11,T3_M11,T4_M11,T5_M11,U1_M11,ZSPAN_M11,X0_M11,X2_M11,X1_M11
2023-04-23 19:00:00,,0828.7,5.00,0.00,23.1,21.6,00.0,31.5,24.7,15.0,0001.8,0009.04,0006.50,0006.19
2023-04-23 19:01:00,,0828.8,5.00,0.00,23.1,21.6,00.0,31.4,24.7,15.5,0001.6,0009.07,0006.50,0006.18
2023-04-23 19:02:00,,0828.8,4.99,0.00,23.1,21.6,00.0,31.4,24.6,14.9,0001.5,0009.02,0006.49,0006.19
2023-04-23 19:03:00,,0828.8,5.00,0.00,23.0,21.5,00.0,31.4,24.6,15.0,0001.8,0009.02,0006.51,0006.22
2023-04-23 19:04:00,,0828.8,5.01,0.00,23.0,21.5,00.0,31.4,24.6,14.9,0001.5,0009.04,0006.53,0006.24
2023-04-23 19:05:00,,0828.7,5.00,0.00,23.0,21.4,00.0,31.4,24.5,14.9,0001.0,0009.08,0006.55,0006.25
2023-04-23 19:06:00,,0828.7,5.00,0.00,23.0,21.4,00.0,31.4,24.5,15.0,0000.7,0008.76,0006.55,0006.26
2023-04-23 19:07:00,,0828.7,4.99,0.00,23.0,21.4,00.0,31.4,24.5,14.9,0000.7,0008.76,0006.57,0006.29
2023-04-23 19:08:00,,0828.7,4.99,0.00,22.9,21.3,00.0,31.4,24.5,15.2,0000.6,0009.25,0006.62,0006.33
2023-04-23 19:09:00,,0828.7,5.00,0.00,22.9,21.3,00.0,31.4,24.5,15.0,0000.5,0010.07,0006.68,0006.37
2023-04-23 19:10:00,,0828.7,5.00,0.00,22.9,21.3,00.0,31.4,24.5,14.9,0000.2,0010.52,0006.73,0006.41
2023-04-23 19:11:00,,0828.7,5.01,0.00,22.9,21.3,00.0,31.4,24.5,15.0,-000.1,0010.71,0006.79,0006.44
2023-04-23 19:12:00,,0828.7,5.01,0.00,22.9,21.4,00.0,31.4,24.5,15.4,0000.0,0010.77,0006.85,0006.50
2023-04-23 19:13:00,,0828.7,5.00,0.00,22.9,21.4,00.0,31.4,24.5,15.1,-000.2,0010.95,0006.90,0006.55
2023-04-23 19:14:00,,0828.7,5.00,0.00,22.9,21.4,00.0,31.4,24.5,15.0,-000.3,0010.99,0006.93,0006.57
2023-04-23 19:15:00,,0828.6,5.00,0.00,22.9,21.4,00.0,31.4,24.5,15.0,-000.2,0011.06,0006.97,0006.60
2023-04-23 19:16:00,,0828.6,5.00,0.00,22.9,21.5,00.0,31.4,24.5,14.9,0000.0,0011.09,0007.01,0006.63
2023-04-23 19:17:00,,0828.6,4.99,0.00,23.0,21.5,00.0,31.4,24.6,15.3,-000.2,0011.32,0007.04,0006.65
2023-04-23 19:18:00,,0828.6,5.00,0.00,23.0,21.6,00.0,31.4,24.6,15.2,-000.5,0011.55,0007.09,0006.68
2023-04-23 19:19:00,,0828.6,5.00,0.00,23.0,21.7,00.0,31.4,24.7,15.2,-000.8,0011.20,0007.08,0006.69
2023-04-23 19:20:00,,0828.6,4.99,0.00,23.0,21.8,00.0,31.4,24.7,15.4,-001.1,0010.44,0007.06,0006.68
2023-04-23 19:21:00,,0828.6,5.00,0.00,23.1,21.8,00.0,31.4,24.7,15.7,-000.8,0010.14,0007.08,0006.68
2023-04-23 19:22:00,,0828.7,5.00,0.00,23.1,21.8,00.0,31.4,24.8,15.2,-000.6,0010.09,0007.08,0006.68
2023-04-23 19:23:00,,0828.5,5.00,0.00,23.1,21.8,00.0,31.4,24.7,15.3,-000.8,0010.12,0007.10,0006.67
2023-04-23 19:24:00,,0828.6,5.00,0.00,23.1,21.8,00.0,31.4,24.7,15.1,-000.8,0010.05,0007.10,0006.67
2023-04-23 19:25:00,,0828.6,5.00,0.00,23.0,21.7,00.0,31.4,24.6,15.2,-001.0,0009.97,0007.09,0006.67
2023-04-23 19:26:00,,0828.6,5.01,0.00,23.0,21.7,00.0,31.4,24.6,15.1,-001.0,0010.00,0007.09,0006.68
2023-04-23 19:27:00,,0828.5,5.01,0.00,23.0,21.7,00.0,31.4,24.6,14.9,-000.6,0009.98,0007.08,0006.68
2023-04-23 19:28:00,,0828.5,5.01,0.00,23.0,21.7,00.0,31.4,24.6,14.9,0000.1,0009.87,0007.08,0006.70
2023-04-23 19:29:00,,0828.6,5.00,0.00,23.1,21.7,00.0,31.4,24.7,15.2,0000.1,0009.63,0007.09,0006.71
2023-04-23 19:30:00,,0828.5,4.99,0.00,23.1,21.8,00.0,31.4,24.7,14.9,0000.6,0009.64,0007.12,0006.71
2023-04-23 19:31:00,,0828.5,4.99,0.00,23.1,21.7,00.0,31.4,24.7,15.0,0001.2,0009.67,0007.15,0006.73
2023-04-23 19:32:00,,0828.6,5.01,0.00,23.1,21.7,00.0,31.4,24.7,14.7,0001.9,0010.02,0007.14,0006.73
2023-04-23 19:33:00,,0828.5,5.00,0.00,23.1,21.6,00.0,31.4,24.6,14.8,0002.2,0009.98,0007.13,0006.75
2023-04-23 19:34:00,,0828.5,4.99,0.00,23.0,21.5,00.0,31.4,24.6,14.9,0002.3,0009.92,0007.12,0006.77
2023-04-23 19:35:00,,0828.5,4.99,0.00,23.0,21.5,00.0,31.4,24.6,14.8,0002.4,0009.89,0007.10,0006.76
2023-04-23 19:36:00,,0828.5,5.00,0.00,23.0,21.4,00.0,31.4,24.6,14.6,0002.5,0009.90,0007.09,0006.74
2023-04-23 19:37:00,,0828.4,5.01,0.00,23.0,21.4,00.0,31.4,24.6,14.5,0002.2,0009.84,0007.09,0006.75
2023-04-23 19:38:00,,0828.4,5.01,0.00,23.0,21.5,00.0,31.4,24.6,14.7,0001.7,0010.10,0007.12,0006.77
2023-04-23 19:39:00,,0828.4,5.00,0.00,23.0,21.5,00.0,31.4,24.6,14.6,0001.5,0010.50,0007.16,0006.78
2023-04-23 19:40:00,,0828.3,5.00,0.00,23.0,21.6,00.0,31.4,24.7,14.7,0002.4,0010.52,0007.16,0006.78
2023-04-23 19:41:00,,0828.4,4.99,0.00,23.1,21.7,00.0,31.4,24.7,14.9,0002.6,0010.58,0007.18,0006.79
2023-04-23 19:42:00,,0828.4,4.99,0.00,23.1,21.7,00.0,31.4,24.7,15.2,0002.7,0010.63,0007.21,0006.80
2023-04-23 19:43:00,,0828.4,4.99,0.00,23.1,21.8,00.0,31.5,24.7,15.0,0002.5,0010.32,0007.26,0006.84
2023-04-23 19:44:00,,0828.4,5.00,0.00,23.1,21.7,00.0,31.5,24.7,14.9,0001.8,0010.35,0007.33,0006.88
2023-04-23 19:45:00,,0828.4,5.01,0.00,23.1,21.7,00.0,31.5,24.7,14.7,0001.9,0010.34,0007.35,0006.91
2023-04-23 19:46:00,,0828.4,5.00,0.00,23.1,21.7,00.0,31.5,24.7,15.0,0002.0,0010.38,0007.38,0006.93
2023-04-23 19:47:00,,0828.4,5.01,0.00,23.1,21.7,00.0,31.5,24.7,15.1,0001.6,0010.43,0007.41,0006.96
2023-04-23 19:48:00,,0828.4,4.99,0.00,23.1,21.7,00.0,31.5,24.7,14.7,0001.5,0010.49,0007.44,0006.99
2023-04-23 19:49:00,,0828.4,4.99,0.00,23.1,21.7,00.0,31.5,24.7,14.6,0001.5,0010.34,0007.44,0007.00
2023-04-23 19:50:00,,0828.3,4.99,0.00,23.1,21.6,00.0,31.5,24.7,14.7,0001.9,0009.98,0007.44,0007.02
2023-04-23 19:51:00,,0828.3,5.02,0.00,23.1,21.6,00.0,31.5,24.7,14.7,0001.4,0010.05,0007.48,0007.04
2023-04-23 19:52:00,,0828.3,5.00,0.00,23.1,21.6,00.0,31.5,24.7,14.6,0000.7,0010.00,0007.49,0007.07
2023-04-23 19:53:00,,0828.3,5.00,0.00,23.1,21.6,00.0,31.5,24.7,14.6,0000.1,0009.97,0007.49,0007.09
2023-04-23 19:54:00,,0828.3,5.00,0.00,23.1,21.6,00.0,31.5,24.7,14.3,-000.6,0010.01,0007.49,0007.10
2023-04-23 19:55:00,,0828.3,5.00,0.00,23.1,21.7,00.0,31.5,24.7,14.4,-000.2,0009.94,0007.46,0007.07
2023-04-23 19:56:00,,0828.3,5.01,0.00,23.1,21.7,00.0,31.5,24.7,14.5,0000.1,0009.99,0007.46,0007.06
2023-04-23 19:57:00,,0828.3,5.00,0.00,23.1,21.8,00.0,31.5,24.8,14.6,0000.5,0009.98,0007.48,0007.08
2023-04-23 19:58:00,,0828.3,5.00,0.00,23.2,21.9,00.0,31.5,24.8,14.7,0001.4,0010.02,0007.52,0007.12
2023-04-23 19:59:00,,0828.3,5.00,0.00,23.2,21.9,00.0,31.5,24.8,14.6,0002.0,0010.16,0007.57,0007.17
